Zurück zum Katalog

COSMOS 2251 DEB

AktivLEO
NORAD 35031·DEBRIS·🇷🇺 Russia

Gestartet Jun 16, 1993 von Plesetsk Cosmodrome

Loading…

Nächste Überflüge (nächste 24 Stunden)

TLE

AlterndSource: Space-Track

Epoche: Sep 12, 2026, 07:29 UTC

1 35031U 93036AGU 26255.31244647  .00000241  00000-0  87415-4 0  9990
2 35031  74.0368 115.1280 0018486 148.0576 212.1703 14.38536280692179

Verfolge COSMOS 2251 DEB in Echtzeit mit AllMySat

Download on the App Store